Wind_Speed
36 35 35 33 31 31 31 31 30 29 26 25 23 24 24 26 28 29 25 23 22 21 21 22 23 21 20 19 20 18 14 14 14 14 14 16 17 17 9 7 16 16 14 10 9
37 37 37 36 34 33 32 33 32 31 28 27 25 25 25 26 26 25 24 23 22 22 22 23 23 23 23 20 20 21 16 16 16 17 16 17 19 21 16 9 17 17 21 18 13
37 38 37 36 35 35 34 34 33 31 31 30 28 28 27 27 25 24 24 23 22 23 24 24 24 23 24 23 22 23 20 20 18 19 19 22 20 23 27 17 18 18 21 22 20
38 38 39 38 37 36 36 35 34 33 32 31 31 31 30 28 25 24 23 22 21 21 22 22 23 25 21 23 25 26 23 25 22 21 24 27 26 29 30 34 26 24 26 23 25
39 41 41 42 40 39 35 34 34 33 32 31 31 30 30 30 27 26 25 24 23 22 22 19 24 24 24 25 25 30 29 29 30 27 29 30 30 31 33 35 37 33 26 28 31
41 41 43 43 41 39 36 36 34 33 32 31 30 30 31 31 27 25 26 25 26 26 24 26 26 25 28 27 27 31 31 33 31 30 32 32 30 30 33 37 38 33 33 33 34
42 41 42 43 43 41 38 36 33 34 34 34 32 30 33 31 29 29 28 28 31 32 31 31 30 30 30 30 32 32 34 36 35 35 35 34 37 33 34 37 41 36 32 35 37
44 42 43 43 42 41 38 37 36 35 35 34 35 34 34 33 31 30 30 31 32 33 33 34 30 28 29 30 31 31 31 36 37 37 38 38 40 43 43 41 43 40 39 40 42
46 44 42 39 39 39 40 40 41 39 38 37 36 34 35 35 32 32 32 35 36 35 36 36 35 35 37 35 33 34 33 34 35 35 34 34 37 46 52 51 48 46 48 48 48
47 46 46 44 45 45 45 44 42 42 43 40 36 34 34 33 34 34 36 37 37 38 37 38 40 42 43 40 41 41 40 39 40 42 38 38 38 39 43 49 48 50 52 55 54
52 51 50 47 44 47 47 47 44 43 42 40 38 37 37 38 38 39 40 40 42 44 43 43 45 46 46 45 44 44 44 44 46 46 43 42 35 39 42 41 42 47 49 49 50
54 56 56 52 53 53 50 53 49 46 46 45 43 44 42 42 42 44 48 47 48 47 48 47 48 51 48 47 45 46 47 49 49 50 43 43 41 42 44 46 46 49 53 53 53
56 55 55 55 52 51 51 50 49 47 46 48 47 48 48 47 48 50 49 48 49 52 54 52 53 51 49 43 43 42 43 44 49 49 47 44 48 50 51 49 51 52 51 53 56
60 59 58 56 55 54 54 54 53 52 53 50 53 48 49 50 47 52 54 51 51 51 49 45 49 49 47 47 44 47 53 49 50 52 54 57 54 52 57 56 58 58 60 62 64
59 58 58 57 57 59 59 58 59 62 57 56 53 54 55 53 49 51 53 51 48 51 46 45 46 48 51 53 52 53 51 52 52 56 55 56 59 55 63 59 61 64 66 69 71
68 67 64 61 61 64 62 63 64 67 54 54 54 55 54 53 50 49 50 51 51 49 52 54 55 56 59 60 59 59 63 65 62 62 58 60 62 57 62 67 70 71 73 76 78
75 71 67 65 65 67 68 66 65 57 55 54 54 56 55 58 60 62 57 54 54 58 58 59 57 55 51 56 59 61 61 67 69 71 66 66 64 65 70 73 74 79 84 82 81
75 77 73 69 67 68 69 68 64 54 60 60 60 59 57 61 62 63 67 64 59 59 61 62 62 66 66 65 70 69 72 75 75 71 70 73 67 68 74 77 83 85 84 87 89
80 79 73 72 75 76 76 77 67 65 67 66 65 62 68 67 68 70 70 73 70 63 63 69 65 68 71 76 78 78 82 82 86 84 78 73 76 79 83 86 93 96 97 99 98
84 78 77 73 73 75 81 75 71 70 72 75 74 71 72 72 72 68 71 71 77 83 82 80 73 77 76 81 84 89 90 91 96 98 94 87 91 98 102 108 112 111 111 108 105
85 84 79 75 79 80 79 74 72 76 77 81 82 87 84 87 81 75 66 70 79 88 90 85 80 80 85 90 92 93 98 98 104 104 111 109 104 110 115 120 120 119 118 115 111
86 90 88 85 88 89 83 76 80 86 86 88 85 88 93 95 83 83 78 80 80 86 82 89 90 89 92 96 102 104 103 105 109 113 117 122 114 120 126 125 123 123 123 120 120
96 96 96 97 95 92 88 84 89 90 93 97 95 97 94 94 96 86 87 87 90 91 91 96 98 96 100 105 109 109 110 113 117 121 124 133 131 133 129 131 135 129 128 125 127
103 100 108 107 87 100 100 102 99 95 105 87 98 96 94 100 106 98 99 96 98 95 93 101 105 106 108 113 116 119 116 120 124 128 135 136 139 129 133 136 131 132 131 133 134
108 106 106 108 113 105 113 113 97 96 99 98 105 100 102 103 100 104 104 105 106 101 105 109 112 114 117 120 120 121 121 127 134 139 145 134 137 130 132 132 134 137 138 139 137
109 110 111 112 116 114 117 109 105 105 108 106 105 106 108 109 108 108 113 110 111 113 117 117 122 124 125 129 131 129 125 132 139 146 150 144 139 139 138 140 141 142 142 134 131
112 113 115 120 118 122 118 114 111 114 114 112 112 115 113 116 115 117 115 119 118 118 119 127 132 130 131 133 136 130 134 143 147 149 146 143 142 143 143 142 138 136 128 123 117
Wind_Direction
246 246 246 249 251 255 258 259 261 264 265 267 267 267 267 268 269 269 273 278 282 286 288 289 289 291 290 291 291 292 289 272 272 268 272 289 292 296 287 260 270 296 313 312 301
245 244 245 246 250 253 256 258 259 259 260 262 263 264 268 271 269 270 273 276 278 283 287 289 290 285 286 288 288 287 284 273 268 269 268 278 282 287 279 242 265 299 306 314 324
244 244 244 246 249 252 255 258 259 260 259 258 259 263 267 270 271 268 268 271 275 282 289 290 290 288 284 285 281 282 281 274 273 272 275 270 273 279 287 264 265 278 278 295 312
244 241 241 244 247 251 255 258 260 262 260 262 262 265 266 268 268 263 262 266 270 277 283 286 288 282 287 286 287 283 279 280 270 273 280 278 270 270 277 280 269 270 276 276 278
243 241 239 243 245 250 250 256 258 257 259 264 265 262 263 265 265 260 258 262 262 269 276 279 281 288 283 284 288 287 287 284 285 288 279 274 276 277 279 276 277 274 274 276 279
242 243 241 243 244 248 250 254 256 254 255 257 260 257 258 262 258 254 259 259 260 260 260 262 273 277 279 281 278 280 283 286 291 289 287 286 280 275 275 279 277 281 282 279 274
239 240 240 243 247 249 252 250 252 250 251 254 253 252 255 256 256 249 244 250 260 263 261 264 271 273 272 273 273 279 283 285 285 287 289 286 282 273 276 276 280 283 283 282 278
237 240 241 241 244 248 247 245 245 242 246 247 246 250 254 258 259 259 260 261 261 265 264 267 269 269 271 270 272 275 276 279 280 281 282 285 284 282 279 279 281 281 277 274 277
234 237 235 238 242 243 245 246 248 248 245 245 247 250 251 254 257 258 261 263 265 268 264 262 262 264 267 267 267 270 272 274 279 277 279 284 284 282 284 281 284 282 276 277 280
231 232 235 240 242 242 243 244 243 245 246 244 244 247 247 252 257 258 258 259 262 263 262 261 263 268 269 270 270 272 273 271 271 278 281 277 278 282 281 285 289 287 283 278 277
230 231 233 235 239 242 242 240 240 241 239 241 242 244 244 251 256 258 258 259 261 262 262 264 267 269 272 273 274 274 274 273 276 278 274 274 275 271 272 275 276 278 280 281 281
230 234 236 234 240 240 242 240 238 242 245 247 250 250 253 255 259 260 262 264 267 267 267 268 271 271 274 275 276 271 271 271 273 273 268 269 267 266 271 267 268 272 271 273 278
234 234 236 237 240 242 243 242 243 245 246 251 251 253 256 258 262 266 267 270 273 274 273 275 276 276 277 272 269 267 269 270 264 264 256 260 276 268 264 266 268 270 267 265 273
237 240 240 241 243 245 244 242 244 247 248 249 256 261 262 262 266 267 270 272 274 273 274 276 278 277 271 278 276 272 271 270 263 259 259 265 259 271 268 266 268 271 271 272 278
233 237 240 240 243 244 246 248 250 248 251 250 254 261 263 265 270 272 273 274 277 273 274 276 272 283 276 278 278 280 281 281 280 271 271 277 268 266 268 271 273 274 274 277 276
238 237 240 240 244 248 249 253 254 253 258 259 257 258 264 265 269 276 279 277 278 273 277 280 281 286 284 287 286 287 288 286 283 284 275 277 279 272 270 269 272 277 277 279 279
241 242 242 244 246 249 251 253 251 253 255 253 256 257 262 268 273 274 278 277 278 278 278 281 280 291 290 289 294 300 301 298 293 291 288 285 281 283 285 283 281 280 282 283 284
244 244 244 244 245 248 250 250 252 254 257 255 259 260 262 272 272 273 270 275 281 280 275 279 284 287 291 302 301 303 302 301 297 292 286 287 284 292 291 290 293 292 291 292 294
245 245 246 248 246 248 249 252 255 255 257 260 260 258 271 273 278 274 271 269 275 283 282 284 289 295 289 296 302 301 303 302 304 304 299 297 295 301 303 299 302 298 297 298 298
247 247 248 246 248 250 252 254 255 254 257 259 262 264 268 276 275 274 268 265 270 272 281 285 289 289 293 292 296 300 303 305 306 309 310 309 309 309 306 305 304 302 302 302 299
247 249 245 247 246 247 252 255 253 256 258 262 267 266 268 269 275 272 270 264 265 272 278 284 292 291 294 296 299 300 302 304 306 311 309 310 311 309 304 302 301 302 302 302 299
256 249 247 246 247 249 251 255 259 261 265 264 269 267 269 266 280 276 282 276 273 284 289 286 289 298 297 299 299 299 304 306 306 307 308 308 308 306 302 301 301 301 301 301 300
254 258 253 252 252 250 252 253 267 262 263 265 262 266 266 265 278 284 284 284 285 287 288 292 296 295 298 294 298 302 304 306 307 306 305 303 304 299 299 300 299 299 300 298 299
251 254 255 251 251 253 253 258 265 257 263 269 260 272 263 271 274 286 288 287 289 289 287 290 297 296 295 295 299 302 301 305 304 304 301 301 298 300 299 297 299 299 298 298 297
254 255 254 255 256 256 251 268 271 265 271 270 268 277 270 279 280 287 287 288 291 291 291 294 295 297 298 296 295 298 302 302 299 298 299 300 298 298 297 298 297 297 297 296 295
252 255 259 262 265 266 266 270 272 270 270 271 273 275 275 282 281 284 286 291 292 293 292 293 295 296 296 297 297 295 298 299 296 297 298 298 301 298 298 298 298 297 296 295 294
252 253 254 259 263 265 271 272 275 274 274 275 276 280 279 279 280 282 287 289 290 292 293 293 293 291 292 292 292 295 291 291 295 297 295 297 296 297 295 296 296 295 295 293 291
Height
10798 10800 10801 10802 10802 10803 10804 10805 10806 10807 10808 10809 10810 10810 10810 10810 10811 10810 10810 10810 10810 10809 10808 10808 10807 10806 10805 10805 10804 10805 10807 10806 10805 10804 10802 10801 10799 10798 10800 10800 10796 10795 10797 10797 10797
10790 10792 10794 10795 10796 10797 10798 10799 10800 10801 10802 10803 10804 10805 10806 10806 10805 10806 10806 10806 10805 10805 10804 10803 10802 10801 10800 10801 10799 10799 10802 10802 10802 10801 10800 10798 10796 10794 10795 10797 10793 10793 10792 10794 10796
10783 10785 10787 10789 10790 10791 10793 10794 10795 10796 10797 10798 10799 10799 10800 10801 10802 10801 10801 10801 10801 10801 10800 10799 10798 10797 10795 10795 10794 10794 10796 10797 10798 10797 10797 10796 10793 10790 10787 10792 10792 10791 10790 10791 10792
10776 10778 10781 10782 10783 10785 10787 10788 10789 10790 10791 10792 10793 10794 10793 10794 10797 10796 10796 10796 10796 10796 10796 10795 10793 10793 10793 10791 10790 10790 10791 10790 10793 10794 10793 10790 10790 10788 10786 10781 10787 10787 10786 10790 10787
10769 10771 10773 10775 10776 10777 10779 10781 10782 10784 10785 10786 10787 10787 10787 10787 10790 10790 10790 10790 10790 10791 10790 10790 10789 10789 10788 10788 10787 10784 10785 10785 10786 10788 10786 10784 10783 10782 10779 10776 10775 10779 10785 10782 10779
10760 10763 10765 10767 10768 10770 10772 10774 10775 10776 10778 10778 10779 10780 10780 10780 10782 10784 10784 10784 10784 10785 10785 10784 10784 10783 10782 10783 10781 10779 10778 10778 10780 10778 10777 10777 10776 10775 10772 10767 10766 10773 10775 10774 10771
10751 10753 10756 10759 10761 10763 10765 10766 10767 10768 10770 10771 10772 10772 10772 10773 10775 10776 10777 10777 10777 10777 10778 10777 10778 10778 10776 10777 10774 10775 10774 10772 10772 10771 10770 10770 10767 10768 10766 10761 10759 10765 10767 10763 10760
10742 10745 10747 10749 10753 10755 10756 10757 10758 10759 10760 10762 10763 10765 10765 10766 10768 10770 10771 10771 10771 10771 10770 10769 10770 10770 10769 10769 10769 10769 10768 10765 10766 10765 10765 10765 10761 10756 10756 10756 10753 10757 10758 10754 10751
10732 10735 10738 10742 10745 10747 10748 10748 10750 10752 10752 10753 10755 10757 10758 10757 10760 10762 10762 10763 10762 10763 10763 10763 10763 10762 10761 10762 10762 10760 10761 10759 10755 10755 10756 10757 10753 10748 10743 10743 10747 10747 10744 10742 10743
10722 10726 10729 10733 10735 10737 10738 10739 10740 10743 10745 10746 10747 10749 10750 10751 10752 10754 10753 10753 10754 10753 10754 10754 10754 10753 10752 10754 10754 10754 10754 10753 10750 10746 10750 10749 10746 10743 10738 10734 10734 10730 10731 10729 10730
10712 10716 10719 10722 10724 10726 10727 10729 10731 10733 10734 10737 10740 10742 10741 10742 10744 10744 10743 10743 10744 10745 10746 10745 10746 10742 10743 10745 10745 10744 10743 10743 10739 10739 10743 10740 10739 10733 10730 10731 10728 10723 10718 10716 10714
10700 10704 10707 10711 10713 10715 10716 10718 10720 10725 10727 10728 10731 10733 10734 10734 10734 10733 10732 10734 10733 10734 10734 10736 10737 10732 10733 10733 10733 10731 10731 10730 10731 10728 10730 10729 10729 10722 10720 10719 10716 10712 10709 10706 10704
10689 10692 10696 10699 10702 10705 10706 10707 10710 10714 10718 10716 10720 10724 10724 10724 10724 10722 10721 10725 10725 10723 10722 10726 10723 10722 10720 10720 10719 10719 10717 10716 10716 10714 10716 10717 10717 10710 10706 10703 10699 10697 10694 10691 10689
10677 10681 10684 10689 10692 10692 10694 10697 10699 10702 10705 10710 10706 10715 10714 10712 10715 10709 10711 10713 10715 10712 10712 10715 10709 10710 10709 10707 10707 10705 10701 10701 10700 10701 10702 10700 10704 10700 10690 10687 10684 10679 10676 10672 10669
10663 10668 10671 10676 10680 10678 10682 10684 10687 10686 10695 10697 10701 10697 10697 10699 10701 10700 10700 10701 10703 10701 10701 10702 10700 10696 10695 10695 10693 10690 10688 10686 10685 10686 10689 10683 10683 10687 10677 10672 10668 10662 10658 10655 10650
10649 10652 10657 10664 10665 10664 10668 10670 10671 10672 10685 10685 10687 10685 10684 10684 10686 10687 10687 10688 10689 10688 10689 10687 10687 10683 10680 10678 10675 10674 10672 10669 10668 10666 10672 10665 10662 10670 10660 10651 10645 10640 10636 10631 10626
10635 10638 10643 10647 10652 10650 10652 10654 10653 10665 10670 10671 10671 10671 10673 10674 10676 10675 10676 10675 10674 10673 10674 10672 10670 10667 10664 10663 10659 10657 10654 10649 10650 10648 10650 10648 10649 10649 10637 10629 10621 10614 10611 10605 10601
10618 10621 10627 10633 10635 10634 10635 10634 10642 10659 10652 10654 10656 10657 10658 10660 10660 10661 10662 10661 10661 10661 10657 10656 10653 10648 10646 10643 10639 10639 10635 10628 10624 10628 10629 10626 10631 10628 10615 10605 10597 10590 10584 10578 10574
10599 10602 10610 10618 10620 10618 10616 10618 10638 10641 10636 10637 10640 10641 10643 10642 10643 10645 10646 10646 10644 10643 10640 10638 10636 10630 10627 10622 10620 10617 10612 10606 10597 10598 10597 10602 10599 10596 10585 10576 10568 10561 10554 10548 10544
10581 10586 10592 10598 10601 10598 10595 10610 10619 10622 10619 10618 10622 10624 10625 10623 10625 10624 10627 10631 10625 10620 10618 10620 10615 10613 10607 10603 10600 10592 10588 10580 10575 10566 10566 10576 10573 10567 10559 10548 10539 10531 10527 10522 10517
10564 10566 10575 10579 10579 10575 10579 10594 10606 10601 10602 10598 10604 10601 10604 10602 10604 10606 10610 10608 10607 10601 10598 10596 10591 10592 10586 10581 10576 10568 10564 10555 10545 10541 10531 10534 10551 10545 10526 10516 10508 10502 10496 10492 10487
10540 10545 10555 10555 10554 10558 10567 10582 10586 10580 10581 10581 10580 10580 10583 10578 10583 10585 10586 10585 10587 10582 10575 10569 10563 10566 10558 10554 10549 10542 10537 10526 10516 10515 10508 10500 10520 10509 10495 10483 10474 10469 10464 10457 10451
10518 10522 10527 10528 10531 10544 10548 10552 10555 10561 10560 10560 10559 10560 10559 10558 10558 10560 10561 10562 10561 10558 10552 10544 10539 10540 10538 10526 10519 10514 10512 10503 10491 10489 10488 10472 10483 10478 10466 10451 10440 10440 10434 10423 10414
10497 10499 10502 10506 10516 10523 10525 10526 10532 10535 10536 10537 10537 10537 10537 10535 10529 10532 10534 10529 10529 10529 10527 10519 10515 10517 10511 10500 10492 10488 10487 10480 10467 10461 10452 10460 10441 10447 10430 10416 10410 10404 10394 10385 10380
10472 10478 10485 10482 10496 10496 10497 10501 10506 10510 10508 10508 10509 10511 10508 10504 10503 10502 10499 10498 10501 10500 10497 10493 10488 10486 10479 10473 10466 10464 10471 10456 10442 10434 10419 10435 10407 10419 10398 10383 10378 10372 10362 10351 10338
10453 10459 10457 10460 10460 10462 10466 10480 10483 10478 10479 10483 10482 10483 10479 10483 10478 10475 10467 10469 10467 10470 10465 10465 10455 10451 10447 10438 10436 10441 10454 10434 10417 10408 10391 10378 10381 10364 10360 10349 10344 10335 10324 10315 10303
10434 10436 10435 10432 10439 10437 10443 10446 10448 10442 10445 10449 10450 10451 10455 10456 10448 10444 10439 10438 10440 10440 10438 10432 10427 10422 10423 10419 10411 10418 10429 10401 10392 10383 10366 10352 10343 10334 10326 10322 10311 10297 10290 10278 10264